Notices

What's New in latest Release from April 7th, 2021:

- Updated Glossary, including Speed of Maximum Gust, and Total Hourly Precipitation

- Updated national and regional climate services offices contacts and prices information

- Addition of station inventory lists for 1981-2010, 1971-2000, and 1961-1990 Normals.

If you haven't already, please take our survey and provide feedback about our website: https://eccc.sondage-survey.ca/f/LanguageSelection.aspx?s=442ca660-fcf1-47c0-95a9-59707d6fd709

Hourly Data Report for April 24, 2020

CLYDE RIVER A
NUNAVUT
Current Station Operator: NAVCAN

70°29'09.000" N
68°31'01.000" W
26.50 m
2400804
71090
YCY

Download Data

Hourly Data (April 2020)
Hourly Data Report for April 24, 2020
TIME
LST
Temp Definition
°C
Dew Point Definition
°C
Rel Hum Definition
%
Precip. Amount Definition
mm

Wind Dir Definition
10's deg

Wind Spd Definition
km/h
Visibility Definition
km
Stn Press Definition
kPa
Hmdx Definition


Wind Chill Definition


Weather Definition


00:00 -17.2 -18.8 87 0.0   0 16.1 102.43     LegendNANA
01:00 -16.4 -18.1 87 0.0 28 9 16.1 102.43   -22 LegendNANA
02:00 -16.7 -18.5 86 0.0 25 5 16.1 102.43   -21 LegendNANA
03:00 -16.5 -18.1 88 0.0 32 9 16.1 102.40   -23 LegendNANA
04:00 -14.8 -16.0 91 0.0 31 8 16.1 102.37   -20 LegendNANA
05:00 -14.6 -15.6 92 0.0 29 9 16.1 102.35   -20 LegendNANA
06:00 -15.2 -16.9 87 0.0 30 9 16.1 102.34   -21 LegendNANA
07:00 -13.6 -15.3 87 0.0 30 8 16.1 102.32   -19 LegendNANA
08:00 -12.9 -14.6 87 0.0 29 8 16.1 102.28   -18 LegendNANA
09:00 -11.0 -12.8 87 0.0 32 18 16.1 102.21   -19 LegendNANA
10:00 -10.3 -11.8 89 0.0 32 17 16.1 102.14   -18 LegendNANA
11:00 -9.5 -11.6 85 0.0 32 21 16.1 102.05   -17 LegendNANA
12:00 -9.1 -11.9 80 0.0 32 24 16.1 102.00   -17 LegendNANA
13:00 -8.8 -11.9 78 0.0 32 24 16.1 101.98   -17 LegendNANA
14:00 -8.9 -11.5 82 0.0 33 24 16.1 101.90   -17 LegendNANA
15:00 -9.6 -12.2 81 0.0 33 26 16.1 101.87   -18 LegendNANA
16:00 -9.8 -12.3 82 0.0 32 26 16.1 101.82   -19 LegendNANA
17:00 -10.0 -12.7 81 0.0 32 26 16.1 101.75   -19 LegendNANA
18:00 -10.7 -12.8 85 0.0 32 22 16.1 101.75   -19 LegendNANA
19:00 -11.2 -13.5 83 0.0 31 24 16.1 101.68   -20 LegendNANA
20:00 -11.5 -13.5 86 0.0 31 24 16.1 101.61   -21 LegendNANA
21:00 -11.7 -13.9 84 0.0 32 24 16.1 101.63   -21 LegendNANA
22:00 -11.5 -13.3 87 0.0 31 26 16.1 101.58   -21 LegendNANA
23:00 -10.8 -12.7 86 0.0 32 24 16.1 101.49   -20 LegendNANA

Notes on Data Quality.

Legend

  • E = Estimated
  • M = Missing
  • NA = Not Available*
  • [empty] = Indicates an unobserved value
Date modified: